, AK

(GMT )
Cape Newenham

Weather History for PAEH - October, 2012

Change the Weather History Date:

Thursday, October 11, 2012

  Actual Average Record
Temperature  
Mean Temperature 50 °F -  
Max Temperature 57 °F 39 °F 57 °F (2012)
Min Temperature 42 °F 33 °F 28 °F (1996)
Degree Days  
Heating Degree Days 16    
Moisture  
Dew Point 34 °F    
Average Humidity 58    
Maximum Humidity 76    
Minimum Humidity 43    
Precipitation  
Precipitation 0.00 in - - ()
Sea Level Pressure  
Sea Level Pressure 29.64 in    
Wind  
Wind Speed 16 mph (ESE)    
Max Wind Speed 28 mph    
Max Gust Speed 38 mph    
Visibility 10 miles    
Events Thunderstorm    
Averages and records for this station are not official NWS values.
T = Trace of Precipitation, MM = Missing Value Source: NWS Daily Summary

Daily Weather History Graph

Daily Weather History Graph

Search for Another Location

Airport or City:

Trip Planner

Search our weather history database for the weather conditions in past years. The results will help you decide how hot, cold, wet, or windy it might be!

Date:

Astronomy

Oct. 11, 2012 Rise Set
Actual Time 9:17 AM AKDT 7:51 PM AKDT
Civil Twilight 8:36 AM AKDT 8:31 PM AKDT
Nautical Twilight 7:50 AM AKDT 9:17 PM AKDT
Astronomical Twilight 7:03 AM AKDT 10:04 PM AKDT
Moon 4:19 AM AKDT (10/11) 6:14 PM AKDT (10/11)
Length of Visible Light 11h 54m
Length of Day
10h 34m
Waning Crescent, 17% of the Moon is Illuminated
Oct 11
Waning Crescent
Oct 15
New
Oct 21
First Quarter
Oct 29
Full
Nov 6
Last Quarter

Hourly Weather History & Observations

Time (AKDT) Temp. Windchill Dew Point Humidity Pressure Visibility Wind Dir Wind Speed Gust Speed Precip Events Conditions
12:55 AM 55.0 °F - 36.7 °F 50% 29.75 in 10.0 mi ESE 16.1 mph 25.3 mph N/A   Mostly Cloudy
1:18 AM 50.0 °F - 37.4 °F 62% 29.75 in 10.0 mi East 20.7 mph 27.6 mph N/A   Mostly Cloudy
1:55 AM 51.8 °F - 37.4 °F 58% 29.74 in 10.0 mi ESE 17.3 mph 25.3 mph N/A   Mostly Cloudy
2:55 AM 57.0 °F - 34.9 °F 43% 29.73 in 10.0 mi ESE 16.1 mph - N/A   Scattered Clouds
3:55 AM 55.6 °F - 33.4 °F 43% 29.70 in 10.0 mi ESE 25.3 mph 31.1 mph N/A   Scattered Clouds
4:55 AM 50.7 °F - 33.6 °F 52% 29.70 in 10.0 mi ESE 24.2 mph 31.1 mph N/A   Partly Cloudy
5:12 AM 51.8 °F - 33.8 °F 50% 29.69 in 10.0 mi East 20.7 mph 28.8 mph N/A   Partly Cloudy
5:55 AM 48.9 °F - 34.5 °F 58% 29.70 in 10.0 mi Variable 3.5 mph - N/A   Mostly Cloudy
6:34 AM 44.6 °F 43.1 °F 35.6 °F 71% 29.68 in 10.0 mi Variable 3.5 mph - N/A Thunderstorm Thunderstorm
6:54 AM 46.4 °F 45.2 °F 35.6 °F 66% 29.68 in 10.0 mi Variable 3.5 mph - N/A   Partly Cloudy
6:55 AM 46.2 °F - 35.2 °F 66% 29.68 in 10.0 mi Variable 2.3 mph - N/A   Partly Cloudy
7:55 AM 46.9 °F - 35.1 °F 63% 29.67 in 10.0 mi Variable 4.6 mph - N/A   Partly Cloudy
8:55 AM 42.8 °F 37.5 °F 35.6 °F 76% 29.67 in 10.0 mi West 9.2 mph - N/A   Clear
9:55 AM 42.8 °F 37.5 °F 34.9 °F 74% 29.65 in 10.0 mi West 9.2 mph 18.4 mph N/A   Clear
10:55 AM 44.6 °F 36.4 °F 33.8 °F 66% 29.62 in 10.0 mi ESE 20.7 mph 27.6 mph N/A   Clear
11:55 AM 44.6 °F 35.1 °F 34.0 °F 66% 29.62 in 10.0 mi East 27.6 mph 35.7 mph N/A   Clear
12:55 PM 47.8 °F - 31.5 °F 53% 29.61 in 10.0 mi ESE 24.2 mph 38.0 mph N/A   Clear
1:55 PM 47.1 °F - 34.3 °F 61% 29.60 in 10.0 mi ESE 24.2 mph 32.2 mph N/A   Clear
2:55 PM 48.2 °F - 34.0 °F 58% 29.59 in 10.0 mi ESE 20.7 mph 27.6 mph N/A   Clear
3:55 PM 49.1 °F - 33.4 °F 55% 29.57 in 10.0 mi ESE 16.1 mph - N/A   Clear
4:55 PM 49.3 °F - 31.3 °F 50% 29.56 in 10.0 mi East 15.0 mph - N/A   Clear
5:55 PM 48.9 °F - 32.0 °F 52% 29.55 in 10.0 mi East 13.8 mph - N/A   Clear
7:55 PM 46.4 °F 40.1 °F 30.6 °F 54% 29.53 in 10.0 mi ESE 15.0 mph - N/A   Clear
9:55 PM 44.4 °F 39.0 °F 30.2 °F 57% 29.52 in 10.0 mi ESE 10.4 mph - N/A   Clear
10:55 PM 43.5 °F 37.5 °F 27.7 °F 54% 29.50 in 10.0 mi ESE 11.5 mph - N/A   Clear
11:55 PM 42.8 °F 35.1 °F 25.9 °F 51% 29.49 in 10.0 mi ESE 16.1 mph - N/A   Clear